Content
SEND FEEDBACK

Daily
Averages
Monthly
Summary
United States of America

ESTILL SPRINGS, TENNESSEE


Home > North America > United States > Tennessee
Elevation: 1053 feet     Latitude: 35 21N     Longitude: 086 12W

WEATHER
 
SELECT A DAY
Number of Records: 65,448;   Date Range: 9/2/10 - 12/25/14
 
SHARE

PRINT THIS DATA

[ ← Previous Day ]
WEATHER ALMANAC - NOVEMBER 5, 2013
[ Next Day → ]
[ °C ]   °F
Weather ElementAverageHighLow
Temperature55.3 °F62.6 °F (1:35 pm)48.2 °F (3:15 am)
Dewpoint36.5 °F39.2 °F (2:35 pm)33.8 °F (12:35 am)
Humidity49.7 %58 % (3:15 am)39 % (10:35 am)
Barometer30.34 in30.41 in (9:35 am)30.27 in (10:55 pm)
Wind Speed6.4 mph11.5 mph (8:15 am)
Weather ElementAverage
Visibility10 mi
Wind DirectionSSE (142.5 °)

Weather ElementTotal
Precipitation---
Heating Degree Days9.6 (Base 65)
Growing Degree Days5.4 (Base 50)
Averaged from 71 records on November 5, 2013
WEATHER CONDITIONS BREAKOUT
WIND DIRECTION BREAKOUT
WEATHER BY HOUR - NOVEMBER 5, 2013
[ °C ]   °F
Local TimeTemperatureDewpointHumidityBarometerVisibilityWind DirectionWind SpeedGust SpeedPrecipitationEventsConditions
12:35 AM51.8 °F33.8 °F50 %30.37 in10.0 miSSE (150°)6.9 mphClear
12:55 AM51.8 °F33.8 °F50 %30.38 in10.0 miSSE (150°)6.9 mphClear
1:15 AM51.8 °F33.8 °F50 %30.38 in10.0 miSE (140°)6.9 mphClear
1:35 AM51.8 °F33.8 °F50 %30.37 in10.0 miSE (140°)5.8 mphClear
1:55 AM51.8 °F33.8 °F50 %30.38 in10.0 miSE (140°)5.8 mphClear
2:15 AM51.8 °F33.8 °F50 %30.37 in10.0 miSE (140°)5.8 mphClear
2:35 AM50.0 °F33.8 °F54 %30.38 in10.0 miSE (140°)4.6 mphClear
2:55 AM50.0 °F33.8 °F54 %30.37 in10.0 miSE (140°)4.6 mphClear
3:15 AM48.2 °F33.8 °F58 %30.37 in10.0 miSE (140°)6.9 mphClear
3:35 AM48.2 °F33.8 °F58 %30.36 in10.0 miSE (140°)6.9 mphClear
3:55 AM48.2 °F33.8 °F58 %30.37 in10.0 miSE (140°)6.9 mphClear
4:15 AM48.2 °F33.8 °F58 %30.37 in10.0 miSE (140°)5.8 mphClear
4:35 AM48.2 °F33.8 °F58 %30.37 in10.0 miSSE (150°)5.8 mphClear
4:55 AM48.2 °F33.8 °F58 %30.37 in10.0 miSSE (150°)5.8 mphClear
5:15 AM48.2 °F33.8 °F58 %30.37 in10.0 miSE (140°)4.6 mphClear
5:35 AM48.2 °F33.8 °F58 %30.38 in10.0 miSSE (150°)8.1 mphClear
5:55 AM48.2 °F33.8 °F58 %30.38 in10.0 miSSE (160°)6.9 mphClear
6:15 AM48.2 °F33.8 °F58 %30.37 in10.0 miSSE (150°)5.8 mphClear
6:35 AM48.2 °F33.8 °F58 %30.38 in10.0 miSSE (150°)6.9 mphClear
6:55 AM48.2 °F33.8 °F58 %30.39 in10.0 miSSE (150°)9.2 mphClear
7:15 AM48.2 °F33.8 °F58 %30.39 in10.0 miSE (140°)8.1 mphClear
7:35 AM48.2 °F33.8 °F58 %30.40 in10.0 miSE (140°)8.1 mphClear
7:55 AM50.0 °F33.8 °F54 %30.40 in10.0 miSE (130°)6.9 mphClear
8:15 AM53.6 °F33.8 °F47 %30.40 in10.0 miSE (140°)11.5 mphClear
8:35 AM53.6 °F33.8 °F47 %30.40 in10.0 miSSE (150°)10.4 mphClear
8:55 AM55.4 °F33.8 °F44 %30.40 in10.0 miSE (130°)9.2 mphClear
9:15 AM57.2 °F33.8 °F41 %30.40 in10.0 miVariable6.9 mphClear
9:35 AM59.0 °F35.6 °F42 %30.41 in10.0 miSSE (160°)10.4 mphClear
9:55 AM57.2 °F35.6 °F44 %30.41 in10.0 miSE (130°)8.1 mphClear
10:15 AM59.0 °F35.6 °F42 %30.41 in10.0 miSSE (160°)8.1 mphClear
10:35 AM60.8 °F35.6 °F39 %30.40 in10.0 miSSE (150°)8.1 mphClear
10:55 AM60.8 °F35.6 °F39 %30.40 in10.0 miSouth (170°)9.2 mphPartly Cloudy
11:15 AM60.8 °F35.6 °F39 %30.40 in10.0 miSSE (160°)5.8 mphMostly Cloudy
11:35 AM60.8 °F37.4 °F42 %30.39 in9.0 miSSE (150°)9.2 mphOvercast
11:55 AM60.8 °F35.6 °F39 %30.38 in10.0 miSE (130°)8.1 mphOvercast
12:15 PM60.8 °F35.6 °F39 %30.37 in10.0 miESE (120°)9.2 mphOvercast
12:35 PM60.8 °F35.6 °F39 %30.36 in10.0 miSSE (160°)5.8 mphOvercast
12:55 PM60.8 °F37.4 °F42 %30.34 in10.0 miSE (140°)6.9 mphOvercast
1:15 PM60.8 °F37.4 °F42 %30.34 in10.0 miSE (130°)6.9 mphOvercast
1:35 PM62.6 °F37.4 °F39 %30.33 in10.0 miSSE (150°)6.9 mphOvercast
1:55 PM62.6 °F37.4 °F39 %30.32 in10.0 miESE (120°)9.2 mphOvercast
2:15 PM62.6 °F37.4 °F39 %30.31 in10.0 miSE (130°)5.8 mphOvercast
2:35 PM62.6 °F39.2 °F42 %30.31 in10.0 miSE (140°)5.8 mphOvercast
2:55 PM62.6 °F39.2 °F42 %30.30 in10.0 miSSE (150°)8.1 mphOvercast
3:15 PM62.6 °F39.2 °F42 %30.30 in10.0 miSSE (150°)4.6 mphOvercast
3:35 PM62.6 °F39.2 °F42 %30.30 in10.0 miSSE (160°)6.9 mphOvercast
3:55 PM62.6 °F39.2 °F42 %30.30 in10.0 miSE (130°)5.8 mphOvercast
4:15 PM62.6 °F39.2 °F42 %30.30 in10.0 miSE (140°)4.6 mphOvercast
4:35 PM60.8 °F39.2 °F45 %30.29 in10.0 miSSE (150°)4.6 mphScattered Clouds
4:55 PM60.8 °F39.2 °F45 %30.30 in10.0 miSSE (150°)6.9 mphClear
5:15 PM59.0 °F39.2 °F48 %30.30 in10.0 miSSE (160°)4.6 mphClear
5:35 PM57.2 °F39.2 °F51 %30.30 in10.0 miSSE (150°)4.6 mphClear
5:55 PM57.2 °F39.2 °F51 %30.30 in10.0 miSSE (150°)4.6 mphClear
6:15 PM57.2 °F39.2 °F51 %30.30 in10.0 miSSE (150°)4.6 mphClear
6:35 PM57.2 °F39.2 °F51 %30.30 in10.0 miSSE (150°)4.6 mphClear
6:55 PM57.2 °F39.2 °F51 %30.29 in10.0 miSE (140°)5.8 mphClear
7:15 PM55.4 °F39.2 °F54 %30.29 in10.0 miSE (130°)4.6 mphClear
7:35 PM55.4 °F39.2 °F54 %30.29 in10.0 miSE (140°)4.6 mphClear
7:55 PM55.4 °F39.2 °F54 %30.29 in10.0 miSSE (150°)4.6 mphClear
8:15 PM55.4 °F39.2 °F54 %30.29 in10.0 miSE (140°)4.6 mphClear
8:35 PM55.4 °F39.2 °F54 %30.29 in10.0 miSE (140°)5.8 mphClear
8:55 PM55.4 °F39.2 °F54 %30.29 in10.0 miSE (140°)4.6 mphClear
9:15 PM55.4 °F39.2 °F54 %30.29 in10.0 miSE (140°)3.5 mphClear
9:35 PM53.6 °F39.2 °F58 %30.28 in10.0 miSE (130°)3.5 mphClear
9:55 PM53.6 °F39.2 °F58 %30.28 in10.0 miSE (140°)4.6 mphScattered Clouds
10:15 PM55.4 °F39.2 °F54 %30.28 in10.0 miSSE (150°)5.8 mphMostly Cloudy
10:35 PM53.6 °F39.2 °F58 %30.28 in10.0 miSSE (160°)5.8 mphPartly Cloudy
10:55 PM53.6 °F39.2 °F58 %30.27 in10.0 miSSE (150°)4.6 mphClear
11:15 PM53.6 °F39.2 °F58 %30.27 in10.0 miSSE (150°)4.6 mphScattered Clouds
11:35 PM53.6 °F37.4 °F54 %30.27 in10.0 miSE (140°)4.6 mphMostly Cloudy
11:55 PM53.6 °F35.6 °F51 %30.27 in10.0 miSSE (160°)6.9 mphMostly Cloudy
Hourly data recorded from KTHA, located miles away from Estill Springs, Tennessee







STORIES FROM OUR PARTNERS